Wind_Speed
8 6 6 7 6 4 4 4 3 5 6 5 3 3 6 6 5 1 2 3 4 4 4 1 4 3 4 4 4 3 3 1 4 5 2 2 3 2 1 2 3 5 4 3 6
8 7 7 6 6 6 6 6 5 5 6 4 5 6 5 6 3 3 3 7 5 4 1 2 2 2 4 3 3 4 3 5 3 3 2 3 3 3 0 2 4 4 6 5 8
8 7 7 8 7 6 6 7 6 5 5 4 4 5 3 3 2 0 6 7 4 1 1 3 3 3 4 3 4 1 3 2 2 1 0 1 2 1 2 5 9 7 4 8 11
8 8 8 8 10 6 5 8 8 5 4 5 5 4 0 1 2 0 7 4 0 2 2 3 2 2 4 3 1 2 1 2 1 0 1 2 3 4 7 6 3 7 0 3 7
8 8 7 9 9 10 6 7 7 4 3 5 4 3 1 3 4 2 5 2 2 3 2 2 2 2 5 4 2 2 3 1 1 1 3 2 5 5 9 10 7 6 5 7 7
8 8 7 9 10 10 8 7 6 4 3 3 2 1 2 1 1 3 3 3 3 4 2 2 5 2 5 3 2 3 2 2 2 3 2 3 3 2 3 4 3 5 8 7 7
9 9 7 7 10 12 10 8 7 5 2 2 1 1 3 4 0 2 4 5 5 4 3 3 6 4 2 5 2 3 1 3 3 2 2 2 4 7 5 5 6 5 5 6 6
10 8 8 9 10 11 11 9 8 5 2 2 1 1 4 2 1 2 4 6 7 10 9 9 10 7 2 4 5 2 3 2 1 2 2 1 8 3 1 4 6 6 6 6 6
10 9 7 8 10 12 10 9 4 3 1 2 2 2 4 2 3 2 3 4 6 7 6 7 6 4 3 4 3 5 2 2 5 4 3 1 7 4 3 0 8 7 7 7 7
10 9 8 7 9 10 9 5 1 2 2 2 1 3 1 3 3 3 3 6 3 4 3 6 5 3 3 4 3 3 3 3 5 3 2 5 17 14 10 8 13 8 6 6 6
11 9 9 7 7 9 7 1 3 1 2 6 2 2 1 3 2 2 3 5 3 6 3 3 3 3 3 2 1 2 0 3 4 1 4 6 10 19 9 6 7 7 6 6 6
13 11 9 7 7 8 5 2 2 2 4 4 2 1 2 3 3 1 3 4 2 3 2 3 2 3 5 3 2 1 1 4 4 1 2 6 18 8 3 3 3 3 4 4 3
15 12 9 7 7 8 4 4 1 0 1 4 4 4 4 6 2 6 3 4 4 3 3 4 4 4 3 2 2 2 3 2 4 6 1 7 6 5 2 3 3 2 1 2 5
17 14 10 7 5 3 3 3 5 2 4 5 4 3 4 4 1 1 1 4 4 7 4 3 1 3 3 1 2 3 1 1 2 4 3 5 4 4 4 6 0 4 3 4 5
22 17 13 12 3 3 1 5 7 2 2 1 2 2 3 5 6 3 2 3 7 5 3 4 5 3 2 1 1 1 1 1 1 1 2 5 2 7 4 2 1 2 3 2 2
25 22 19 14 11 3 2 8 3 6 8 1 3 5 5 2 2 2 2 7 5 5 5 3 1 2 2 3 2 4 2 3 3 2 3 2 2 5 2 3 2 3 3 0 1
16 23 26 15 6 12 5 2 4 5 3 5 5 6 3 4 3 3 5 5 6 5 2 2 1 1 2 3 1 1 2 3 5 4 3 1 2 8 5 5 4 5 7 4 3
20 25 30 22 12 14 9 3 5 4 6 2 4 5 6 7 3 5 6 5 5 4 3 6 3 4 1 1 3 4 3 4 5 1 5 1 5 4 5 3 4 7 8 5 4
7 29 23 28 19 21 4 4 7 7 7 10 2 5 4 4 5 4 8 6 9 12 7 5 1 2 2 1 2 3 2 2 7 1 3 3 7 8 4 8 6 9 6 6 5
9 14 17 30 26 24 3 13 6 5 5 3 8 5 9 8 7 6 9 5 6 9 2 7 5 1 1 1 2 1 4 3 3 1 3 5 6 5 2 7 4 5 5 4 2
6 3 15 38 21 9 10 11 7 5 4 6 7 5 5 8 8 6 6 3 4 5 3 5 4 2 1 5 7 1 0 3 3 3 4 1 6 6 6 5 6 5 4 5 4
4 3 18 42 6 3 15 9 5 5 3 4 3 3 8 9 8 6 10 5 7 9 10 7 5 4 5 1 1 2 3 4 4 4 1 3 7 2 7 5 4 7 7 5 5
1 2 11 12 10 8 2 9 6 4 6 7 7 6 3 7 4 6 5 4 5 8 9 8 1 3 5 2 3 4 5 3 5 3 6 5 6 2 5 6 6 7 8 5 5
2 2 1 2 1 13 12 10 18 7 5 4 4 4 4 1 4 5 2 2 1 1 2 6 3 6 8 6 6 5 5 6 5 4 4 7 10 7 7 6 8 8 8 8 5
1 3 3 3 6 5 13 11 17 15 10 7 5 8 8 4 3 5 2 2 2 1 1 2 5 3 1 3 2 5 7 11 9 6 6 5 11 11 7 8 9 6 7 7 5
3 3 2 2 4 10 6 11 21 20 10 16 14 12 8 7 7 8 6 4 5 2 4 1 2 3 2 4 3 2 4 9 4 2 9 2 16 9 13 6 5 9 7 9 7
5 2 1 4 4 7 12 17 10 12 13 18 23 7 10 10 7 7 4 4 6 9 7 6 5 2 4 2 3 5 11 12 6 6 7 7 17 5 5 7 7 9 8 9 8
Wind_Direction
333 347 4 358 358 336 320 319 330 332 335 329 321 322 335 351 5 115 54 334 318 329 327 312 84 113 78 78 55 127 65 226 233 178 222 160 177 218 25 159 213 206 196 188 163
324 338 354 357 352 343 322 314 320 322 323 329 318 312 320 343 342 57 6 341 325 322 34 109 81 65 47 47 26 86 129 219 196 191 259 188 191 191 182 229 257 267 246 203 186
317 332 349 348 346 349 334 322 316 312 311 319 331 322 308 333 20 147 345 339 322 304 83 89 101 78 78 48 16 115 202 179 224 211 189 251 281 196 163 260 224 211 216 198 205
311 322 341 343 337 343 345 327 320 308 305 319 336 339 245 64 219 137 341 343 218 165 157 121 54 64 95 123 39 140 132 162 179 73 159 226 310 282 198 236 288 218 336 197 215
302 314 333 332 335 337 344 333 321 307 303 325 347 3 111 78 247 337 354 27 121 133 142 147 101 146 138 126 107 117 173 185 208 183 239 269 243 237 252 250 251 256 256 242 239
291 303 322 328 329 331 338 331 317 304 292 311 356 30 52 268 117 6 33 95 114 133 95 66 163 182 109 96 134 155 154 184 227 223 273 270 253 41 223 39 188 216 248 246 252
284 295 309 322 326 327 334 330 308 296 259 271 327 131 97 230 73 28 70 76 73 119 116 97 116 25 164 95 163 117 338 306 226 216 260 270 264 235 254 311 307 299 291 286 279
276 284 302 314 322 325 329 329 308 287 271 221 175 151 220 175 112 74 102 86 85 88 95 102 101 104 26 110 28 46 62 348 301 340 311 314 273 244 49 197 263 282 279 285 285
273 275 290 302 317 323 324 324 305 272 226 238 167 141 278 164 160 93 102 117 99 87 82 89 68 81 2 79 11 11 267 261 318 24 307 194 273 263 143 291 287 272 259 282 289
264 270 278 293 308 318 325 325 259 251 183 142 68 45 148 204 148 133 113 113 95 112 38 43 61 83 39 75 238 263 274 252 257 318 313 256 265 267 266 258 263 262 269 273 285
258 262 270 283 297 317 338 36 27 319 224 193 204 130 139 128 129 84 123 112 78 46 128 2 88 192 169 131 111 101 179 273 265 6 310 258 276 283 285 252 268 265 253 260 265
251 255 262 270 284 303 322 127 208 192 305 192 189 195 192 185 115 135 161 117 115 177 103 34 185 137 112 100 105 128 273 287 281 51 332 317 294 288 310 299 256 246 220 235 259
245 245 249 257 280 285 221 213 280 148 214 262 193 177 179 163 196 183 166 123 112 133 198 168 158 130 109 90 147 222 218 241 238 323 271 305 295 351 12 329 275 216 178 160 229
238 235 231 227 260 212 235 234 206 163 49 246 212 229 112 139 177 308 0 120 69 168 154 100 144 131 108 183 128 266 147 123 340 18 287 3 278 322 338 314 305 1 328 272 266
227 220 218 203 161 196 192 169 166 114 4 219 160 115 147 149 130 342 11 53 138 143 149 209 136 141 134 118 115 283 32 34 13 95 345 355 68 270 346 325 107 16 36 37 235
251 209 198 200 220 182 150 152 147 51 250 194 129 158 125 109 101 157 91 47 128 102 36 85 38 64 89 85 82 143 86 40 45 53 31 325 97 287 228 210 290 259 319 322 166
239 221 200 188 188 201 179 142 60 173 326 214 183 162 156 145 138 166 162 155 150 107 208 2 43 72 113 104 35 142 66 335 352 8 221 38 9 248 250 229 211 269 279 266 219
242 241 201 190 154 156 143 58 190 219 193 122 118 103 177 157 188 156 136 191 234 115 116 148 278 169 80 181 196 190 181 155 216 266 277 86 236 246 217 257 252 262 256 272 255
254 205 193 195 166 151 90 197 213 202 166 147 91 115 220 213 145 157 195 204 198 176 152 136 2 337 55 6 102 190 195 131 103 41 34 259 282 292 258 272 254 253 263 269 248
325 175 189 185 163 134 97 231 212 203 138 158 180 162 175 182 157 192 178 201 200 184 144 197 92 318 22 196 44 223 143 75 5 89 294 290 284 244 235 223 247 263 262 284 234
296 252 177 174 157 147 198 218 230 232 166 164 201 144 189 175 174 195 198 255 153 144 111 144 101 271 41 203 180 140 357 56 117 118 175 267 271 213 227 217 227 264 284 279 264
244 243 169 150 148 208 207 189 215 204 169 240 158 157 181 172 171 208 205 272 142 149 165 199 118 136 203 250 321 282 204 170 126 242 56 140 275 267 248 265 279 279 279 274 271
194 358 185 210 177 203 220 205 241 196 189 191 214 204 179 172 178 197 189 347 142 163 160 189 230 87 1 4 7 226 197 169 106 91 203 140 259 252 278 268 247 260 284 276 270
144 176 284 344 301 197 194 207 219 215 257 215 188 136 121 116 40 173 152 11 304 254 12 94 108 156 183 185 129 175 191 180 139 129 183 225 269 273 278 283 281 274 271 279 273
150 230 167 208 238 238 206 196 207 217 201 177 239 210 167 148 97 157 135 135 49 234 26 144 179 110 7 337 183 147 166 177 193 185 177 245 221 255 229 231 253 255 278 287 278
166 167 198 237 197 210 220 221 213 211 177 206 231 201 193 158 167 190 147 205 189 127 171 47 216 114 24 354 31 142 166 197 244 286 285 310 275 231 259 236 276 263 268 276 277
170 198 201 188 180 185 214 229 240 216 223 226 219 186 200 197 125 112 116 88 145 154 169 151 144 123 235 350 54 325 217 183 188 216 187 212 244 212 241 235 261 267 252 266 271
Height
819 816 813 813 812 812 812 811 809 809 809 807 806 805 805 804 804 804 804 805 804 803 803 802 802 802 802 806 810 813 828 835 827 835 821 823 824 824 823 824 825 823 821 819 821
818 816 813 812 811 811 811 811 809 808 808 806 806 805 804 804 803 804 805 803 803 803 802 802 803 803 810 811 815 819 832 823 825 825 824 823 822 822 824 825 824 821 818 819 820
818 816 813 813 811 809 810 811 809 808 807 806 804 804 803 803 804 805 804 803 802 803 804 802 804 804 810 814 820 823 825 824 823 824 824 824 824 823 824 823 818 817 814 817 818
817 815 812 812 814 808 806 810 809 807 807 806 805 803 801 802 808 803 803 801 801 802 803 802 804 809 814 816 819 819 825 824 824 824 824 824 824 824 824 814 811 813 814 815 815
815 815 812 813 813 810 806 807 808 806 806 806 804 804 803 803 804 803 801 801 801 801 803 803 807 812 814 818 819 819 823 824 824 823 823 823 823 823 817 811 811 814 814 813 813
814 814 811 812 813 810 806 806 807 805 804 805 803 804 805 807 802 801 801 800 802 801 804 803 805 810 816 818 819 821 821 822 822 821 821 822 819 817 806 806 808 811 811 811 812
812 813 811 810 811 811 806 803 806 805 802 804 803 803 804 805 802 802 801 800 801 801 803 803 805 813 816 818 823 822 821 821 821 821 820 822 815 817 805 807 808 808 808 808 808
810 809 809 811 809 809 805 802 805 805 803 802 802 803 804 802 803 802 802 803 802 803 805 804 807 813 819 819 826 825 827 824 820 821 821 820 806 800 804 806 805 808 807 807 806
808 808 807 808 808 807 805 802 803 804 802 803 802 802 803 802 802 802 802 803 803 803 807 805 809 821 824 824 831 834 824 825 821 829 824 822 810 800 803 805 806 805 806 806 805
804 805 805 805 806 805 804 801 801 803 804 803 803 806 803 801 800 801 803 800 806 804 809 810 819 827 835 831 834 822 824 826 828 826 826 825 812 802 801 803 800 801 804 804 802
801 802 805 803 803 803 803 801 805 805 803 800 801 799 800 801 802 801 801 802 806 811 814 819 822 822 822 829 830 830 828 829 826 832 833 825 821 796 796 800 801 800 800 800 799
799 800 802 801 802 803 801 801 801 802 801 796 798 799 799 800 802 801 803 803 808 817 818 822 819 828 831 829 830 831 829 830 829 831 835 827 807 800 796 793 796 794 794 796 796
796 798 799 799 801 801 798 799 800 799 803 796 796 796 796 800 800 803 802 801 810 819 820 818 826 828 827 831 829 832 828 829 833 836 836 838 800 791 789 793 792 791 791 794 795
791 794 797 798 803 797 797 798 798 799 830 795 797 794 795 797 800 803 801 802 813 819 825 826 830 828 828 828 833 826 838 838 836 834 824 839 812 795 795 792 788 789 792 794 795
785 789 794 797 795 797 796 795 799 800 846 791 796 795 795 797 803 803 802 801 813 823 825 824 830 829 827 829 837 832 842 842 841 839 842 832 835 798 798 782 784 787 790 791 791
780 784 789 793 793 793 795 796 799 829 831 798 794 795 798 796 800 805 803 805 815 821 830 836 835 833 833 840 839 844 842 846 849 847 854 834 834 800 792 782 786 788 789 789 789
777 780 782 785 786 789 795 798 821 836 797 797 796 793 792 799 801 801 805 809 815 830 839 833 834 837 837 834 841 840 840 852 837 848 832 845 844 796 782 785 787 789 790 788 788
771 775 776 781 782 786 794 807 825 808 793 786 788 791 789 792 797 801 804 805 806 808 846 824 824 836 840 835 830 837 835 845 841 840 835 845 821 785 786 784 789 792 790 788 787
765 767 772 776 780 783 795 812 793 787 774 781 783 789 789 788 792 795 802 804 795 803 799 826 828 841 841 842 841 836 843 842 876 916 867 824 808 785 781 781 782 786 787 787 786
766 763 764 772 778 780 802 784 784 770 771 770 766 775 789 788 787 796 800 780 779 791 790 798 826 847 843 843 842 838 842 842 862 835 839 830 819 792 771 771 771 775 780 782 783
765 760 756 763 777 781 785 780 774 765 764 767 770 775 769 778 778 785 779 772 777 792 790 805 805 847 844 845 837 847 850 844 844 852 852 860 803 791 777 771 770 774 779 780 781
760 760 759 758 778 786 770 771 763 759 764 761 762 761 764 769 774 776 773 775 775 782 784 791 810 841 837 844 843 839 826 828 834 850 884 868 815 778 783 779 779 778 779 779 778
758 763 761 758 755 767 767 762 761 757 758 758 758 755 757 763 763 768 771 782 778 777 779 786 804 834 828 839 844 838 831 827 836 847 865 841 803 779 783 779 777 778 775 775 776
761 761 764 763 754 750 757 758 759 755 752 751 749 751 756 765 763 774 776 784 781 778 775 778 807 782 782 782 810 839 832 827 827 853 840 829 793 778 783 785 773 775 775 773 774
758 755 754 749 755 752 746 743 752 750 747 750 751 747 749 769 776 775 782 784 781 779 780 780 785 820 830 816 794 802 824 827 825 809 802 791 807 766 777 776 769 770 768 770 770
754 755 760 753 748 751 750 740 736 742 742 743 747 743 744 747 744 768 773 775 764 783 781 786 797 813 818 834 821 809 819 821 826 833 818 821 793 764 758 766 772 767 767 765 763
747 749 747 742 743 745 737 735 735 737 732 726 730 738 740 736 740 751 763 762 763 771 781 785 804 791 807 842 823 808 788 806 808 803 786 794 753 754 756 759 760 756 759 758 757